{"data":{"norad_id":46075,"intl_designator":"2020-055BA","name":"STARLINK-1551","alt_names":[],"object_type":"PAYLOAD","status":"ACTIVE","operator":null,"country":"US","launch_date":"2020-08-07","launch_site_code":"AFETR","launch_vehicle":null,"mission":null,"orbit_class":"UNKNOWN","rcs_meters":null,"size_class":null,"mass_kg":null,"dimensions":null,"purposes":["comms"],"wikipedia_slug":null,"has_3d_model":false,"image_url":null,"decayed_at":null,"tle_current":{"epoch":"2026-05-25T03:46:49.227744Z","epoch_age_seconds":54733,"freshness":"FRESH","line1":"1 46075U 20055BA  26145.15751421 -.00001090  00000+0 -24693-4 0  9997","line2":"2 46075  53.1611 105.8788 0001260  76.5325 283.5816 15.30178832320944","mean_motion":15.30178832,"eccentricity":0.000126,"inclination_deg":53.1611,"raan_deg":105.8788,"arg_perigee_deg":76.5325,"mean_anomaly_deg":283.5816,"bstar":-2.4693e-5,"rev_number":32094,"period_min":94.106647529418,"perigee_km":474.41474365586,"apogee_km":476.14180430491,"semimajor_km":6853.4152739804,"source":"CELESTRAK","updated_at":"2026-05-25T13:38:16.464318Z"}}}